User: anonymous   Login
Location: Unspecified
(0.0000°N, 0.0000°E)
Time: 11:48:56
(UTC+00:00)
Language:

CHALLENGER - Orbit

View from above orbital plane
View from above orbital plane
View from above satellite
View from above satellite

Ground track
Ground track

The orbit data is extracted from the following two-line orbital elements,

1 42723U 98067MC  18168.96098501  .00032266  00000-0  22324-3 0  9995
2 42723  51.6384 349.1623 0004774 227.9294 132.1300 15.74194822 60786
Epoch (UTC): 17 June 2018 23:03:49
Eccentricity: 0.0004774
inclination: 51.6384°
perigee height: 344 km
apogee height: 350 km
right ascension of ascending node: 349.1623°
argument of perigee: 227.9294°
revolutions per day: 15.74194822
mean anomaly at epoch: 132.1300°
orbit number at epoch: 6078

The dashed part of the orbit path shows where the satellite is in the earth's shadow,  

DLR